Location: Bukit Lungun
(2.6833°N, 113.9667°E)
Time: 10:52:16
(UTC+00:00)

Cosmos 1745 Rocket - Pass Details

Date: 02 March 2021
Orbit: 953 x 997 km, 83.0° (Epoch: 20 April)

Event Time Altitude Azimuth Distance (km) Brightness Sun altitude
Rises 21:29:42 0° 345° (NNW) 3,689 6.8 -16.8°
Reaches altitude 10° 21:32:18 10° 340° (NNW) 2,747 6.1 -16.2°
Maximum altitude 21:38:19 47° 267° (W) 1,291 4.2 -14.7°
Drops below altitude 10° 21:44:22 10° 195° (SSW) 2,762 6.3 -13.2°
Sets 21:47:00 0° 189° (S) 3,712 7.0 -12.5°
